Flag for Germany Weather past 2 weeks in Schwedt/Oder, Brandenburg, Germany

Now
43 °F

Fog.


Feels Like: 37 °F
Forecast: 36 / 49 °F
Wind: 10 mph from South

Location: Szczecin Airport

Current Time: Oct 24, 2014 at 3:36:52 PM

Latest Report: Oct 24, 2014 at 3:00 PM


Visibility: 2 mi

Pressure: 30.27 "Hg

Humidity: 93%

Dew point: 41 °F

Location of Schwedt/OderLocation

Historic Weather in Schwedt/Oder — Graph

°F

Schwedt/Oder temperature yesterday

Maximum temperature yesterday: 52 °F (at 12:00 AM)
Minimum temperature yesterday: 43 °F (at 11:00 PM)
Average temperature yesterday: 47 °F

Past Weeks' High & Low Weather Summary

 TemperatureHumidityPressure
High68 °F (Oct 19, 3:30 PM)100% (Oct 10, 4:00 AM)30.30 "Hg (Oct 10, 4:00 AM)
Low41 °F (Oct 24, 3:30 AM)68% (Oct 10, 1:30 PM)29.45 "Hg (Oct 21, 11:30 PM)
Average55 °F93%29.88 "Hg
* Reported Oct 9 2:00 PM — Oct 24 2:30 PM, Schwedt/Oder, Weather by CustomWeather, © 2014

Note: Actual official high and low records may vary slightly from our data, if they occured in-between our weather recording intervals... More about our weather records

Advertising

Schwedt/Oder weather history for previous 24 hours

 ConditionsComfort  
Time TempWeatherWind HumidityBarometerVisibility
2:30 PM
Oct 24
43 °FFog.10 mph93%30.27 "Hg2 mi
2:00 PM43 °FFog.9 mph93%30.27 "Hg2 mi
1:30 PM43 °FFog.10 mph100%30.27 "Hg2 mi
1:00 PM43 °FFog.10 mph100%30.30 "Hg3 mi
12:30 PM45 °FBroken clouds.8 mph93%30.30 "Hg5 mi
12:00 PM45 °FPartly sunny.13 mph93%30.30 "Hg5 mi
11:30 AM43 °FBroken clouds.12 mph100%30.30 "Hg5 mi
11:00 AM43 °FBroken clouds.12 mph100%30.30 "Hg5 mi
10:30 AM43 °FPartly sunny.13 mph93%30.27 "Hg5 mi
10:00 AM43 °FBroken clouds.14 mph100%30.27 "Hg5 mi
9:30 AM43 °FBroken clouds.13 mph100%30.27 "Hg5 mi
9:00 AM43 °FFog.10 mph100%30.27 "Hg3 mi
8:30 AM43 °FFog.8 mph93%30.27 "Hg2 mi
8:00 AM43 °FFog.9 mph93%30.27 "Hg2 mi
7:30 AM43 °FFog.9 mph93%30.27 "Hg3 mi
7:00 AM43 °FFog.8 mph93%30.27 "Hg2 mi
6:30 AM43 °FFog.7 mph93%30.27 "Hg3 mi
6:00 AM41 °FPartly cloudy.8 mph100%30.27 "Hg4 mi
5:30 AM41 °FFog.7 mph100%30.27 "Hg2 mi
5:00 AM41 °FFog.9 mph100%30.27 "Hg2 mi
4:30 AM41 °FFog.9 mph100%30.27 "Hg2 mi
4:00 AM41 °FFog.8 mph100%30.27 "Hg2 mi
3:30 AM41 °FDrizzle. Fog.10 mph100%30.27 "Hg2 mi
3:00 AM43 °FDrizzle. Fog.9 mph100%30.27 "Hg2 mi
2:30 AM43 °FDrizzle. Fog.9 mph100%30.27 "Hg2 mi
2:00 AM43 °FDrizzle. Fog.6 mph100%30.27 "Hg2 mi
1:30 AM43 °FDrizzle. Fog.7 mph100%30.27 "Hg2 mi
1:00 AM43 °FDrizzle. Fog.8 mph100%30.27 "Hg2 mi
12:30 AM43 °FDrizzle. Fog.7 mph100%30.27 "Hg1 mi
12:00 AM43 °FDrizzle. Fog.8 mph100%30.27 "Hg1 mi
11:30 PM
Oct 23
43 °FDrizzle. Fog.7 mph100%30.24 "Hg2 mi
11:00 PM43 °FDrizzle. Fog.7 mph100%30.24 "Hg2 mi
10:30 PM45 °FDrizzle. Fog.7 mph93%30.24 "Hg2 mi
10:00 PM45 °FPartly cloudy.6 mph93%30.24 "Hg3 mi
9:30 PM46 °FPartly cloudy.5 mph87%30.24 "HgN/A
9:00 PM46 °FPassing clouds.3 mph87%30.24 "HgN/A
8:30 PM46 °FPassing clouds.3 mph87%30.21 "HgN/A
8:00 PM46 °FPartly cloudy.5 mph87%30.21 "HgN/A
7:30 PM46 °FPartly cloudy.No wind87%30.21 "HgN/A
7:00 PM46 °FPassing clouds.No wind87%30.21 "HgN/A
6:30 PM46 °FPartly sunny.No wind87%30.21 "Hg5 mi
6:00 PM46 °FPartly sunny.No wind87%30.21 "Hg5 mi
5:30 PM46 °FPartly sunny.No wind87%30.21 "Hg5 mi
5:00 PM46 °FPartly sunny.1 mph87%30.18 "Hg5 mi
4:30 PM46 °FPartly sunny.1 mph93%30.18 "Hg5 mi
4:00 PM46 °FPartly sunny.2 mph87%30.18 "Hg5 mi
3:30 PM46 °FPartly sunny.2 mph87%30.18 "Hg5 mi
3:00 PM46 °FPartly sunny.2 mph93%30.18 "Hg5 mi
Weather by CustomWeather, © 2014

See weather overviewHow to use our weather pages